Regional Weather Roundup
Issued by NWS

Home | Current Version | Previous Version | Graphics & Text | Print | Product List | Glossary On
Versions: 1 2 3 4 5 6 7 8 9 10 11 12 13 14 15 16 17 18 19 20 21 22 23 24 25 26 27 28 29 30 31 32 33 34 35 36 37 38 39 40 41 42 43 44 45 46 47 48 49 50
000
ASUS43 KOAX 220502
RWRNE

WEATHER ROUNDUP FOR NEBRASKA
NATIONAL WEATHER SERVICE OMAHA NE
1200 AM CDT WED OCT 22 2014

NOTES: SATELLITE DATA IS BEING USED TO AUGMENT CLOUD COVER ABOVE
       12000 FEET.
       "FAIR" INDICATES FEW OR NO CLOUDS BELOW 12,000 FEET WITH NO
       SIGNIFICANT WEATHER AND/OR OBSTRUCTIONS TO VISIBILITY.

  * THESE STATIONS DO NOT REPORT WEATHER SUCH AS RAIN...SNOW OR FOG.

NEZ001>004-019>022-054>056-220600-
NEBRASKA PANHANDLE

CITY           SKY/WX    TMP DP  RH WIND       PRES   REMARKS
SCOTTSBLUFF    LGT RAIN  60  48  64 W9        29.89R
ALLIANCE       MOCLDY    51  44  77 CALM      29.88S
CHADRON        CLOUDY    62  45  53 S3        29.81S
KIMBALL        CLOUDY    58  42  56 NW14      29.93R
SIDNEY         MOCLDY    54  41  61 SW5       29.91S
$$

NEZ057>060-069>072-079>082-220600-
SOUTHWEST NEBRASKA

CITY           SKY/WX    TMP DP  RH WIND       PRES   REMARKS
NORTH PLATTE   PTCLDY    66  52  60 S14       29.91S
IMPERIAL       PTCLDY    63  46  54 S12       29.91F
LEXINGTON      PTCLDY    64  57  79 SE7       29.95S
MCCOOK         PTCLDY    65  51  60 S15       29.94S
OGALLALA       PTCLDY    63  51  65 S12       29.89S
$$

NEZ005>010-023>029-035>040-094-220600-
NORTH CENTRAL NEBRASKA

CITY           SKY/WX    TMP DP  RH WIND       PRES   REMARKS
VALENTINE      PTCLDY    65  55  70 S20       29.84F
AINSWORTH      PTCLDY    61  53  73 S20G26    29.88F
BROKEN BOW     PTCLDY    61  54  77 SE12      29.93F
O`NEILL        PTCLDY    61  44  53 SE12G17   29.94F
ORD            PTCLDY    58  48  69 VRB3      29.94F
THEDFORD       PTCLDY    65  57  75 S13       29.90F
$$

NEZ041-046>049-061>064-073>077-083>087-220600-
SOUTH CENTRAL NEBRASKA

CITY           SKY/WX    TMP DP  RH WIND       PRES   REMARKS
GRAND ISLAND   CLEAR     61  48  62 S14       29.97F
AURORA         CLEAR     60  44  54 SE10G16   29.99S HAZE
HASTINGS       CLEAR     61  50  67 SE14      29.97F
HEBRON         CLEAR     59  47  65 SE9       30.01S
HOLDREGE       PTCLDY    60  55  81 CALM      29.96S
KEARNEY *      CLEAR     61  54  77 SE12      29.97R
YORK           CLEAR     59  43  55 SE15      30.00F
$$

NEZ011>018-030>034-042>045-220600-
NORTHEAST NEBRASKA

CITY           SKY/WX    TMP DP  RH WIND       PRES   REMARKS
NORFOLK        CLEAR     60  39  45 SE15      30.00S
ALBION         CLEAR     55  41  58 SE6       29.99S
BLAIR          PTCLDY    58  42  57 SE13      30.06F
COLUMBUS *     CLEAR     61  37  41 SE9       30.03S
FREMONT        CLEAR     59  40  49 SE12      30.04F
TEKAMAH        CLEAR     56  44  64 SE15      30.06F
WAYNE          CLEAR     58  39  50 SE12      30.02F
$$

NEZ050>053-065>068-078-088>093-220600-
SOUTHEAST NEBRASKA

CITY           SKY/WX    TMP DP  RH WIND       PRES   REMARKS
LINCOLN        CLEAR     61  42  49 SE13      30.05S
OMAHA EPPLEY   PTCLDY    58  44  60 SE16      30.08S
BEATRICE       CLEAR     60  43  54 SE10      30.04S
FALLS CITY     MOCLDY    54  43  66 SE9       30.08S
NEBRASKA CITY  CLOUDY    58  37  45 SE12      30.08S
PLATTSMOUTH    CLEAR     55  40  58 SE9       30.07F
$$

NEZ044-045-051>053-067-220600-
OMAHA AREA

CITY           SKY/WX    TMP DP  RH WIND       PRES   REMARKS
OMAHA EPPLEY   PTCLDY    58  44  60 SE16      30.08S
BLAIR          PTCLDY    58  42  57 SE13      30.06F
FREMONT        CLEAR     59  40  49 SE12      30.04F
OFFUTT AFB     PTCLDY    55  47  74 SE9       30.07S
PLATTSMOUTH    CLEAR     55  40  58 SE9       30.07F
WAHOO          MOCLDY    53  41  63 SE8       30.05S
$$



USA.gov is the U.S. government's official web portal to all federal, state and local government web resources and services.